Starlink 31156

operational
NORAD ID: 58743 Int'l Des: 2024-005 Owner: SPXS Country: US Constellation: starlink
LEOCIRCULAR

About Starlink 31156

Description loading...

Live Position

Loading 3D Globe...

Upcoming Passes

Altitude History

Altitude vs Time

uPlot chart will show altitude changes over time

Two-Line Element Set

1 58743U 24005R 25257.00471069 .00001742 00000-0 14404-3 0 9996
2 58743 43.0020 101.6855 0001407 231.7005 128.3711 15.02526757 93896
Epoch: Sep 14, 2025 • Age: 35 hours

Current Status

Altitude 566.6 km
Velocity 7.58 km/s
Sub-Earth Point -29.50°S, 103.13°W
Launch Date Jan 7, 2024
Age 1.6 years
Type internet

Technical Details

Classification Payload
Mass 730.00 kg
Dry Mass 700.00 kg
Total Mass 730.00 kg
Length 0.30 m
Diameter 4.10 m
Span 29.00 m
Shape Box + pan
Manufacturer SPXS
Bus Type Starlink V2M
Phase Status In Orbit
Owner/State SPXS/US

Large Constellations

Loading constellations...